map of GHA home
GHA - Airport
Location
City:  Ghardaia, Ghardaïa, Algeria
Name:Noumérat-Moufdi Zakaria Airport
ICAO:DAUG
IATA:GHA

Details
Type:Airport (Aerodrome, Airfield)
Use:Public/Civil, International (customs port of entry)
Latitude:32°22'54"N (32.381667)
Longitude:3°47'58"E (3.799444)
Elevation:1512 ft (461 m)
Variation:1.24°E (WMM2015v2 magnetic declination)
0.12° annual change
Runways:2
Longest:10171 × 197 ft (3100 × 60 m)

Time
Time Zone:UTC+1
Local Time:

Weather
METAR:DAUG 041400Z 34016KT CAVOK 13/M07 Q1022
TAF:DAUG 041100Z 0412/0512 34020KT CAVOK PROB40
TEMPO 0412/0416 5000 DRSA PROB30
TEMPO 0418/0506 34020G30KT 3000 DRSA

Related Locations
Nearby:
Farthest:NZOP: 11902 mi / 19154 km
Opotiki, BOP, NZ

Find:

   beyond  
but within

Other Information
Maps:
NOTAMs:
Links:
Sources:

  
  • flag of Algeria
  

Sectional Chart

Flight Planning
at skyvector.com

Satellite Image

Google Maps Satellite view

 

Copyright © 2004-2019 Karl L. Swartz. All rights reserved.
The Great Circle Mapper name and logo are trademarks of the Great Circle Mapper.
All other trademarks mentioned herein belong to their respective owners.
Please see credits for attibutions and further copyright information.

  Follow gcmap on Facebook Follow gcmap on Twitter GCmap on LinkedIn

hCard Microformat

Geo Microformat